SWA879 KMDW-KDCA

Flight info

Callsign SWA879
Flight time 1h 23m
Altitude 39000
Route LEWKE GIJ OTENS ANEWA JERRI NUSMM BUCKO FRDMM6
Aircraft B737/M-SDE2E3FGHIRWXY/LB1

Departure

Time 2026-04-26 19:40
Airport Chicago Midway International Airport (KMDW)

Arrival

Time 2026-04-26 21:04
Airport Ronald Reagan Washington National Airport (KDCA)
Time Latitude Longitude Altitude Speed Heading
2026-04-26 19:04 41.78839 -87.74426 628 ft 0 kts 124°
2026-04-26 19:29 41.78839 -87.74427 628 ft 0 kts 124°
2026-04-26 19:29 41.78852 -87.74452 635 ft 4 kts 124°
2026-04-26 19:30 41.78869 -87.74481 632 ft 4 kts 133°
2026-04-26 19:30 41.78889 -87.74504 634 ft 4 kts 156°
2026-04-26 19:30 41.78913 -87.74509 631 ft 4 kts 206°
2026-04-26 19:30 41.78921 -87.74502 628 ft 1 kts 223°
2026-04-26 19:31 41.78923 -87.74499 628 ft 0 kts 223°
2026-04-26 19:35 41.78910 -87.74516 632 ft 5 kts 222°
2026-04-26 19:35 41.78876 -87.74558 633 ft 9 kts 223°
2026-04-26 19:35 41.78822 -87.74626 631 ft 13 kts 224°
2026-04-26 19:35 41.78748 -87.74720 634 ft 17 kts 223°
2026-04-26 19:36 41.78649 -87.74802 635 ft 17 kts 213°
2026-04-26 19:36 41.78591 -87.74873 631 ft 16 kts 223°
2026-04-26 19:36 41.78484 -87.75009 628 ft 16 kts 224°
2026-04-26 19:36 41.78407 -87.75108 632 ft 15 kts 223°
2026-04-26 19:37 41.78333 -87.75202 631 ft 14 kts 223°
2026-04-26 19:37 41.78262 -87.75291 631 ft 14 kts 223°
2026-04-26 19:37 41.78194 -87.75378 632 ft 13 kts 226°
2026-04-26 19:37 41.78129 -87.75461 630 ft 13 kts 223°
2026-04-26 19:38 41.78065 -87.75541 636 ft 12 kts 223°
2026-04-26 19:38 41.78002 -87.75621 630 ft 13 kts 223°
2026-04-26 19:38 41.77984 -87.75645 628 ft 0 kts 222°
2026-04-26 19:38 41.77983 -87.75647 628 ft 1 kts 231°
2026-04-26 19:39 41.77990 -87.75687 628 ft 12 kts 302°
2026-04-26 19:39 41.78032 -87.75741 636 ft 8 kts 335°
2026-04-26 19:39 41.78111 -87.75692 631 ft 39 kts 43°
2026-04-26 19:39 41.78542 -87.75141 630 ft 129 kts 43°
2026-04-26 19:40 41.79337 -87.74086 832 ft 186 kts 45°
2026-04-26 19:40 41.80319 -87.72824 1713 ft 207 kts 46°
2026-04-26 19:40 41.81283 -87.71420 2784 ft 199 kts 62°
2026-04-26 19:40 41.81743 -87.69649 3087 ft 202 kts 88°
2026-04-26 19:41 41.81719 -87.67619 3134 ft 233 kts 95°
2026-04-26 19:41 41.81621 -87.65432 3135 ft 235 kts 96°
2026-04-26 19:41 41.81519 -87.63258 3156 ft 231 kts 96°
2026-04-26 19:41 41.81449 -87.61860 3395 ft 226 kts 96°
2026-04-26 19:42 41.81273 -87.59006 3836 ft 234 kts 99°
2026-04-26 19:42 41.81064 -87.56844 4400 ft 235 kts 100°
2026-04-26 19:42 41.80842 -87.54631 5021 ft 243 kts 100°
2026-04-26 19:42 41.80616 -87.52364 5614 ft 249 kts 100°
2026-04-26 19:43 41.80389 -87.50041 6205 ft 251 kts 100°
2026-04-26 19:43 41.80166 -87.47729 6821 ft 250 kts 100°
2026-04-26 19:43 41.79942 -87.45396 7438 ft 255 kts 101°
2026-04-26 19:43 41.79716 -87.43026 8054 ft 257 kts 101°
2026-04-26 19:44 41.79489 -87.40640 8677 ft 259 kts 101°
2026-04-26 19:44 41.79261 -87.38237 9318 ft 261 kts 101°
2026-04-26 19:44 41.79031 -87.35816 10024 ft 264 kts 101°
2026-04-26 19:44 41.78796 -87.33352 10758 ft 269 kts 101°
2026-04-26 19:45 41.78556 -87.30841 11501 ft 274 kts 101°
2026-04-26 19:45 41.78313 -87.28290 12248 ft 279 kts 101°
2026-04-26 19:45 41.78065 -87.25692 13020 ft 283 kts 102°
2026-04-26 19:45 41.77814 -87.23068 13808 ft 286 kts 102°
2026-04-26 19:46 41.77560 -87.20409 14521 ft 289 kts 101°
2026-04-26 19:46 41.77303 -87.17728 15247 ft 291 kts 101°
2026-04-26 19:46 41.77044 -87.15029 15979 ft 293 kts 101°
2026-04-26 19:46 41.76783 -87.12316 16735 ft 294 kts 101°
2026-04-26 19:47 41.76520 -87.09605 17496 ft 294 kts 101°
2026-04-26 19:47 41.76345 -87.07806 18016 ft 294 kts 101°
2026-04-26 19:47 41.76168 -87.04188 18973 ft 294 kts 92°
2026-04-26 19:47 41.76196 -87.01432 19676 ft 291 kts 91°
2026-04-26 19:48 41.76242 -86.98737 20325 ft 291 kts 90°
2026-04-26 19:48 41.76290 -86.95965 20672 ft 303 kts 90°
2026-04-26 19:48 41.76334 -86.93109 21088 ft 312 kts 90°
2026-04-26 19:48 41.76376 -86.90159 21497 ft 321 kts 90°
2026-04-26 19:49 41.76415 -86.87121 21906 ft 331 kts 90°
2026-04-26 19:49 41.76453 -86.83990 22323 ft 341 kts 90°
2026-04-26 19:49 41.76489 -86.80774 22742 ft 351 kts 89°
2026-04-26 19:49 41.76524 -86.77462 23161 ft 360 kts 89°
2026-04-26 19:50 41.76559 -86.74069 23585 ft 369 kts 89°
2026-04-26 19:50 41.76594 -86.70587 23961 ft 378 kts 89°
2026-04-26 19:50 41.76628 -86.67023 24315 ft 387 kts 89°
2026-04-26 19:50 41.76661 -86.63378 24678 ft 395 kts 89°
2026-04-26 19:51 41.76693 -86.59665 25038 ft 403 kts 89°
2026-04-26 19:51 41.76725 -86.55879 25422 ft 410 kts 89°
2026-04-26 19:51 41.76757 -86.52026 25800 ft 417 kts 89°
2026-04-26 19:51 41.76787 -86.48164 26163 ft 423 kts 89°
2026-04-26 19:52 41.76816 -86.44200 26531 ft 429 kts 89°
2026-04-26 19:52 41.76846 -86.40185 26913 ft 434 kts 89°
2026-04-26 19:52 41.76873 -86.36122 27298 ft 438 kts 89°
2026-04-26 19:52 41.76894 -86.32018 27688 ft 443 kts 90°
2026-04-26 19:53 41.76770 -86.27876 28081 ft 447 kts 93°
2026-04-26 19:53 41.76536 -86.23719 28484 ft 450 kts 94°
2026-04-26 19:53 41.76255 -86.19528 28889 ft 453 kts 95°
2026-04-26 19:53 41.75962 -86.15318 29299 ft 456 kts 95°
2026-04-26 19:54 41.75672 -86.11079 29713 ft 458 kts 94°
2026-04-26 19:54 41.75390 -86.06826 30133 ft 459 kts 94°
2026-04-26 19:54 41.75116 -86.02567 30501 ft 460 kts 94°
2026-04-26 19:54 41.74845 -85.98294 30864 ft 460 kts 94°
2026-04-26 19:55 41.74576 -85.94023 31227 ft 460 kts 94°
2026-04-26 19:55 41.74307 -85.89760 31598 ft 460 kts 94°
2026-04-26 19:55 41.74037 -85.85497 31970 ft 459 kts 94°
2026-04-26 19:55 41.73766 -85.81239 32350 ft 458 kts 94°
2026-04-26 19:56 41.73532 -85.77595 32678 ft 457 kts 94°
2026-04-26 19:56 41.73258 -85.73357 33068 ft 456 kts 94°
2026-04-26 19:56 41.72984 -85.69134 33460 ft 455 kts 94°
2026-04-26 19:56 41.72708 -85.64920 33860 ft 454 kts 93°
2026-04-26 19:57 41.72432 -85.60719 34248 ft 452 kts 93°
2026-04-26 19:57 41.72155 -85.56539 34594 ft 451 kts 93°
2026-04-26 19:57 41.71877 -85.52362 34948 ft 449 kts 93°
2026-04-26 19:57 41.71599 -85.48199 35305 ft 448 kts 93°
2026-04-26 19:58 41.71321 -85.44064 35664 ft 446 kts 93°
2026-04-26 19:58 41.71042 -85.39942 36029 ft 444 kts 93°
2026-04-26 19:58 41.70763 -85.35843 36400 ft 441 kts 93°
2026-04-26 19:58 41.70488 -85.31806 36769 ft 438 kts 93°
2026-04-26 19:59 41.70210 -85.27770 37146 ft 435 kts 93°
2026-04-26 19:59 41.69933 -85.23752 37527 ft 431 kts 93°
2026-04-26 19:59 41.69657 -85.19779 37919 ft 427 kts 93°
2026-04-26 19:59 41.69380 -85.15802 37939 ft 434 kts 93°
2026-04-26 20:00 41.69098 -85.11736 37791 ft 444 kts 93°
2026-04-26 20:00 41.68808 -85.07597 37822 ft 448 kts 93°
2026-04-26 20:00 41.68212 -84.99206 37905 ft 458 kts 93°
2026-04-26 20:01 41.67597 -84.90644 37984 ft 467 kts 93°
2026-04-26 20:01 41.66966 -84.81922 38068 ft 475 kts 93°
2026-04-26 20:02 41.66395 -84.73052 38148 ft 482 kts 90°
2026-04-26 20:02 41.66153 -84.67037 38201 ft 487 kts 90°
2026-04-26 20:03 41.65763 -84.56451 38284 ft 494 kts 90°
2026-04-26 20:03 41.65312 -84.45663 38380 ft 500 kts 90°
2026-04-26 20:04 41.64965 -84.37955 38415 ft 498 kts 91°
2026-04-26 20:04 41.64533 -84.28791 38450 ft 491 kts 91°
2026-04-26 20:05 41.64108 -84.19726 38497 ft 486 kts 91°
2026-04-26 20:05 41.63687 -84.10749 38549 ft 483 kts 91°
2026-04-26 20:06 41.63261 -84.01793 38624 ft 485 kts 91°
2026-04-26 20:06 41.62821 -83.92728 38715 ft 491 kts 91°
2026-04-26 20:07 41.62369 -83.83572 38782 ft 496 kts 91°
2026-04-26 20:07 41.61906 -83.74397 38826 ft 493 kts 91°
2026-04-26 20:08 41.61444 -83.65334 38862 ft 485 kts 91°
2026-04-26 20:08 41.60410 -83.56385 38914 ft 486 kts 104°
2026-04-26 20:09 41.58446 -83.47776 38967 ft 484 kts 105°
2026-04-26 20:09 41.56437 -83.39188 39052 ft 486 kts 105°
2026-04-26 20:10 41.55447 -83.34873 39165 ft 486 kts 105°
2026-04-26 20:10 41.54465 -83.30545 39206 ft 488 kts 105°
2026-04-26 20:10 41.52490 -83.21791 39222 ft 493 kts 105°
2026-04-26 20:11 41.50514 -83.13051 39212 ft 495 kts 105°
2026-04-26 20:12 41.47509 -82.99848 39194 ft 497 kts 105°
2026-04-26 20:12 41.45494 -82.91042 39191 ft 495 kts 105°
2026-04-26 20:13 41.43479 -82.82271 39189 ft 494 kts 105°
2026-04-26 20:13 41.41465 -82.73530 39194 ft 492 kts 105°
2026-04-26 20:14 41.39374 -82.64794 39194 ft 493 kts 111°
2026-04-26 20:14 41.35955 -82.56916 39211 ft 493 kts 129°
2026-04-26 20:15 41.31235 -82.50298 39206 ft 493 kts 135°
2026-04-26 20:15 41.26371 -82.43865 39196 ft 493 kts 135°
2026-04-26 20:16 41.21536 -82.37408 39194 ft 493 kts 135°
2026-04-26 20:16 41.16728 -82.30926 39198 ft 493 kts 134°
2026-04-26 20:17 41.11913 -82.24422 39194 ft 494 kts 134°
2026-04-26 20:17 41.07125 -82.17970 39198 ft 494 kts 134°
2026-04-26 20:18 41.02298 -82.11485 39184 ft 495 kts 134°
2026-04-26 20:18 40.97432 -82.04964 39178 ft 495 kts 134°
2026-04-26 20:19 40.92584 -81.98481 39178 ft 495 kts 135°
2026-04-26 20:19 40.87771 -81.92059 39175 ft 495 kts 135°
2026-04-26 20:20 40.82881 -81.85550 39175 ft 495 kts 135°
2026-04-26 20:20 40.78028 -81.79103 39178 ft 495 kts 135°
2026-04-26 20:21 40.73197 -81.72699 39175 ft 495 kts 135°
2026-04-26 20:21 40.68306 -81.66231 39179 ft 495 kts 135°
2026-04-26 20:22 40.63429 -81.59795 39166 ft 494 kts 135°
2026-04-26 20:22 40.58573 -81.53401 39157 ft 494 kts 135°
2026-04-26 20:23 40.53713 -81.47022 39152 ft 493 kts 135°
2026-04-26 20:23 40.48850 -81.40652 39160 ft 493 kts 135°
2026-04-26 20:24 40.44000 -81.34298 39154 ft 492 kts 135°
2026-04-26 20:24 40.39152 -81.27964 39158 ft 492 kts 135°
2026-04-26 20:25 40.34292 -81.21634 39158 ft 491 kts 135°
2026-04-26 20:25 40.29449 -81.15339 39162 ft 491 kts 135°
2026-04-26 20:26 40.24601 -81.09051 39163 ft 490 kts 135°
2026-04-26 20:26 40.19754 -81.02777 39160 ft 489 kts 135°
2026-04-26 20:27 40.14883 -80.96486 39157 ft 489 kts 135°
2026-04-26 20:27 40.10049 -80.90254 39157 ft 488 kts 135°
2026-04-26 20:28 40.05230 -80.84053 39150 ft 487 kts 135°
2026-04-26 20:28 40.00450 -80.77814 39159 ft 486 kts 134°
2026-04-26 20:29 39.95782 -80.71435 39151 ft 486 kts 133°
2026-04-26 20:29 39.91131 -80.65059 39151 ft 485 kts 133°
2026-04-26 20:30 39.86461 -80.58711 39151 ft 485 kts 134°
2026-04-26 20:30 39.81784 -80.52392 39141 ft 484 kts 134°
2026-04-26 20:31 39.77076 -80.46048 38468 ft 492 kts 134°
2026-04-26 20:31 39.74708 -80.42861 37950 ft 488 kts 134°
2026-04-26 20:31 39.72363 -80.39708 37402 ft 484 kts 134°
2026-04-26 20:31 39.70030 -80.36575 36874 ft 480 kts 134°
2026-04-26 20:32 39.67717 -80.33470 36359 ft 479 kts 134°
2026-04-26 20:32 39.65403 -80.30368 35862 ft 477 kts 134°
2026-04-26 20:32 39.63096 -80.27278 35370 ft 475 kts 134°
2026-04-26 20:32 39.60790 -80.24193 34889 ft 478 kts 134°
2026-04-26 20:33 39.58472 -80.21095 34424 ft 482 kts 133°
2026-04-26 20:33 39.56127 -80.17963 33929 ft 484 kts 133°
2026-04-26 20:33 39.53773 -80.14824 33383 ft 484 kts 134°
2026-04-26 20:33 39.51431 -80.11703 32850 ft 483 kts 134°
2026-04-26 20:34 39.49090 -80.08588 32328 ft 482 kts 133°
2026-04-26 20:34 39.46754 -80.05482 31811 ft 481 kts 134°
2026-04-26 20:34 39.44418 -80.02379 31308 ft 481 kts 133°
2026-04-26 20:34 39.42086 -79.99284 30795 ft 481 kts 134°
2026-04-26 20:35 39.39748 -79.96185 30332 ft 483 kts 133°
2026-04-26 20:35 39.37397 -79.93071 30173 ft 484 kts 134°
2026-04-26 20:35 39.35038 -79.89949 30130 ft 486 kts 133°
2026-04-26 20:36 39.30290 -79.83676 30120 ft 490 kts 134°
2026-04-26 20:36 39.26343 -79.78469 30109 ft 490 kts 133°
2026-04-26 20:37 39.21535 -79.72136 30120 ft 488 kts 133°
2026-04-26 20:37 39.16780 -79.65891 30118 ft 487 kts 133°
2026-04-26 20:38 39.12037 -79.59660 30123 ft 487 kts 133°
2026-04-26 20:38 39.07299 -79.53437 30137 ft 486 kts 134°
2026-04-26 20:39 39.02564 -79.47217 30137 ft 487 kts 133°
2026-04-26 20:39 39.00531 -79.43767 30135 ft 484 kts 115°
2026-04-26 20:39 38.99493 -79.39691 30155 ft 479 kts 96°
2026-04-26 20:39 38.99261 -79.35384 29863 ft 481 kts 91°
2026-04-26 20:40 38.98904 -79.31022 28099 ft 496 kts 96°
2026-04-26 20:40 38.98315 -79.26630 26664 ft 499 kts 99°
2026-04-26 20:40 38.97616 -79.22288 25620 ft 493 kts 101°
2026-04-26 20:40 38.96893 -79.18043 25109 ft 478 kts 101°
2026-04-26 20:41 38.96192 -79.13920 24545 ft 471 kts 100°
2026-04-26 20:41 38.95507 -79.09777 24364 ft 474 kts 100°
2026-04-26 20:41 38.94825 -79.05555 24247 ft 472 kts 100°
2026-04-26 20:41 38.94163 -79.01374 24190 ft 471 kts 99°
2026-04-26 20:42 38.93594 -78.97242 24181 ft 469 kts 95°
2026-04-26 20:42 38.93468 -78.93087 23463 ft 469 kts 88°
2026-04-26 20:42 38.93594 -78.88805 21765 ft 482 kts 84°
2026-04-26 20:42 38.93830 -78.84545 21172 ft 466 kts 83°
2026-04-26 20:43 38.94070 -78.80531 21178 ft 438 kts 83°
2026-04-26 20:43 38.94283 -78.76709 20893 ft 421 kts 84°
2026-04-26 20:43 38.94469 -78.73033 20632 ft 407 kts 84°
2026-04-26 20:43 38.94633 -78.69432 20376 ft 400 kts 84°
2026-04-26 20:44 38.94784 -78.65909 20190 ft 389 kts 84°
2026-04-26 20:44 38.94923 -78.62489 19763 ft 381 kts 84°
2026-04-26 20:44 38.95060 -78.59071 18584 ft 393 kts 84°
2026-04-26 20:44 38.95205 -78.55484 17077 ft 410 kts 84°
2026-04-26 20:45 38.95353 -78.51771 15604 ft 422 kts 84°
2026-04-26 20:45 38.95496 -78.48041 14790 ft 419 kts 84°
2026-04-26 20:45 38.95630 -78.44363 14656 ft 395 kts 84°
2026-04-26 20:45 38.95754 -78.40917 14527 ft 376 kts 84°
2026-04-26 20:46 38.95870 -78.37690 14416 ft 359 kts 84°
2026-04-26 20:46 38.95986 -78.34520 14324 ft 342 kts 84°
2026-04-26 20:46 38.96095 -78.31531 14225 ft 328 kts 84°
2026-04-26 20:46 38.96201 -78.28655 14148 ft 315 kts 83°
2026-04-26 20:47 38.96301 -78.25898 13994 ft 305 kts 83°
2026-04-26 20:47 38.96367 -78.24108 13763 ft 302 kts 83°
2026-04-26 20:47 38.96498 -78.20537 13605 ft 293 kts 83°
2026-04-26 20:47 38.96594 -78.17923 13766 ft 297 kts 83°
2026-04-26 20:48 38.96694 -78.15235 13918 ft 305 kts 83°
2026-04-26 20:48 38.96792 -78.12504 14033 ft 306 kts 83°
2026-04-26 20:48 38.96888 -78.09774 14078 ft 307 kts 83°
2026-04-26 20:48 38.96984 -78.07026 14086 ft 308 kts 83°
2026-04-26 20:49 38.97079 -78.04279 14091 ft 308 kts 84°
2026-04-26 20:49 38.97173 -78.01534 14085 ft 308 kts 84°
2026-04-26 20:49 38.97267 -77.98786 14006 ft 309 kts 84°
2026-04-26 20:49 38.97360 -77.96028 13826 ft 310 kts 84°
2026-04-26 20:50 38.97452 -77.93273 13644 ft 308 kts 84°
2026-04-26 20:50 38.97543 -77.90530 13465 ft 306 kts 84°
2026-04-26 20:50 38.97634 -77.87800 13283 ft 305 kts 84°
2026-04-26 20:50 38.97723 -77.85092 13092 ft 304 kts 84°
2026-04-26 20:51 38.97813 -77.82365 12832 ft 305 kts 84°
2026-04-26 20:51 38.97902 -77.79636 12526 ft 308 kts 84°
2026-04-26 20:51 38.97991 -77.76876 12144 ft 307 kts 84°
2026-04-26 20:51 38.98079 -77.74144 11774 ft 305 kts 84°
2026-04-26 20:52 38.98164 -77.71438 11407 ft 302 kts 84°
2026-04-26 20:52 38.98250 -77.68714 10988 ft 301 kts 84°
2026-04-26 20:52 38.98290 -77.66046 10509 ft 305 kts 92°
2026-04-26 20:52 38.97691 -77.63367 10035 ft 311 kts 111°
2026-04-26 20:53 38.96795 -77.60829 9527 ft 312 kts 112°
2026-04-26 20:53 38.95889 -77.58329 9011 ft 313 kts 112°
2026-04-26 20:53 38.94974 -77.55795 8508 ft 313 kts 111°
2026-04-26 20:53 38.94059 -77.53232 8013 ft 312 kts 111°
2026-04-26 20:54 38.93157 -77.50684 7519 ft 312 kts 111°
2026-04-26 20:54 38.92263 -77.48152 7049 ft 311 kts 111°
2026-04-26 20:54 38.91372 -77.45630 6551 ft 310 kts 110°
2026-04-26 20:54 38.90426 -77.43192 6126 ft 307 kts 115°
2026-04-26 20:55 38.89400 -77.40864 6042 ft 292 kts 116°
2026-04-26 20:55 38.88415 -77.38667 5998 ft 276 kts 116°
2026-04-26 20:55 38.87481 -77.36557 5998 ft 268 kts 115°
2026-04-26 20:55 38.86581 -77.34506 5809 ft 261 kts 115°
2026-04-26 20:56 38.85685 -77.32450 5308 ft 266 kts 116°
2026-04-26 20:56 38.84785 -77.30388 5070 ft 261 kts 116°
2026-04-26 20:56 38.83903 -77.28418 4977 ft 249 kts 116°
2026-04-26 20:56 38.83061 -77.26557 4979 ft 234 kts 116°
2026-04-26 20:57 38.82261 -77.24786 4959 ft 221 kts 116°
2026-04-26 20:57 38.81505 -77.23109 4974 ft 217 kts 116°
2026-04-26 20:57 38.80751 -77.21431 4920 ft 220 kts 116°
2026-04-26 20:57 38.79977 -77.19708 4689 ft 224 kts 116°
2026-04-26 20:58 38.79203 -77.17995 4473 ft 221 kts 116°
2026-04-26 20:58 38.78435 -77.16294 4204 ft 220 kts 116°
2026-04-26 20:58 38.77664 -77.14587 3901 ft 221 kts 117°
2026-04-26 20:58 38.76888 -77.12882 3612 ft 223 kts 120°
2026-04-26 20:59 38.75735 -77.11548 3255 ft 230 kts 156°
2026-04-26 20:59 38.74167 -77.11171 3057 ft 230 kts 175°
2026-04-26 20:59 38.72561 -77.11086 3015 ft 234 kts 175°
2026-04-26 20:59 38.70900 -77.10578 2997 ft 256 kts 152°
2026-04-26 21:00 38.69473 -77.09226 2993 ft 255 kts 128°
2026-04-26 21:00 38.68593 -77.07307 2981 ft 248 kts 105°
2026-04-26 21:00 38.68394 -77.05166 2973 ft 240 kts 81°
2026-04-26 21:00 38.68885 -77.03146 2841 ft 240 kts 58°
2026-04-26 21:01 38.70006 -77.01534 2587 ft 242 kts 35°
2026-04-26 21:01 38.71446 -77.00459 2356 ft 239 kts 19°
2026-04-26 21:01 38.73079 -77.00445 2117 ft 240 kts 341°
2026-04-26 21:01 38.74520 -77.01529 2076 ft 240 kts 330°
2026-04-26 21:02 38.75935 -77.02627 2019 ft 231 kts 338°
2026-04-26 21:02 38.77436 -77.03011 1907 ft 213 kts 358°
2026-04-26 21:02 38.78885 -77.03140 1665 ft 206 kts 357°
2026-04-26 21:02 38.80286 -77.03269 1283 ft 196 kts 356°
2026-04-26 21:03 38.81606 -77.03455 908 ft 183 kts 355°
2026-04-26 21:03 38.82870 -77.03583 427 ft 176 kts 356°
2026-04-26 21:03 38.83657 -77.03650 209 ft 169 kts 358°
2026-04-26 21:03 38.84772 -77.03739 26 ft 125 kts 355°
2026-04-26 21:04 38.85210 -77.03793 22 ft 37 kts 339°
2026-04-26 21:04 38.85255 -77.03849 22 ft 0 kts 289°
2026-04-26 21:05 38.85258 -77.03863 22 ft 9 kts 281°
2026-04-26 21:06 38.85230 -77.03932 25 ft 8 kts 189°
2026-04-26 21:06 38.85138 -77.03960 23 ft 19 kts 204°
2026-04-26 21:06 38.84962 -77.03958 26 ft 29 kts 173°
2026-04-26 21:06 38.84774 -77.03953 25 ft 28 kts 196°
2026-04-26 21:07 38.84628 -77.04041 25 ft 15 kts 208°
2026-04-26 21:07 38.84624 -77.04104 27 ft 6 kts 319°
2026-04-26 21:07 38.84676 -77.04134 24 ft 11 kts 336°
2026-04-26 21:07 38.84738 -77.04179 23 ft 8 kts 301°
2026-04-26 21:08 38.84735 -77.04212 26 ft 3 kts 240°
2026-04-26 21:08 38.84729 -77.04222 24 ft 1 kts 231°
2026-04-26 21:08 38.84728 -77.04225 25 ft 0 kts 231°